Погода Полярный

Погода Полярный : погода сейчас, прогноз погоды и архив. Всё, что Вы хотите узнать о погоде Полярный!

Хотите узнать прогноз погоды Полярный? Тогда Вам сюда: Погода Полярный

Поиск расширенной информации на нашем сайте:

Полезная информация: Изготовление Салфеток с логотипом

Другие новости

Новости СМИ2

Главная страница сайта

Новости сайта

03.07.2017

Напоминаем, что на нашем специализированном сайте Метеоцентр.Азия вы можете получить высокодетализированные автоматические прогнозы погоды по пунктам России, СНГ и мира в авиационном формате (включающие направление и скорость ветра, видимость, явления погоды, количество и форму облачности, нижнюю и верхнюю границу облачности).

Рекомендуем: Надежно - новости балаково - у нас дешевле.

Погода Полярный - сегодня

Время (UTC), дата Ветер
(°,м/с) 
Видим.   Явления Облачность Т
(°С)
Тd
(°С)
f(%) Тe
(°С)
Pmin
(гПа)
dP
(гПа)
Po
(мм)
O2
(г/м3)
Тmin Tmax R s Состояние
почвы
21 20.02.18 270 (З) 20000 м    8/0 средняя, верхняя 
[Ac trans|Ci fib]
-30.2 -33.2 75 -37  1019  -1.9  713  325           
00 21.02.18 290 (З) 20000 м  [диам. изморози 17 мм]  10/0 средняя, верхняя 
[Ac trans|Ci fib]
-28.5 -31 79 -35  1017.7  -0.8  712  322  -32.4      54  равномерный
сухой снег
100% 
09 21.02.18 280 (З) 4000 м  слаб. снег  10/0 средняя 
[As op]
-24.6 -26.5 84 -30  1014.4  710  316           
12 21.02.18 280 (З) 2000 м  слаб. снег  10/0 средняя 
[As op]
-24.3 -26.8 80 -29  1014.1  -0.2  710  316    -24.2  0.0     
15 21.02.18 290 (З) 2000 м  слаб. снег  10/0 средняя 
[As op]
-24.9 -27.4 80 -30  1013.5  -0.6  710  316           
18 21.02.18 260 (З) 2000 м  слаб. снег  10/0 средняя 
[As op]
-25.7 -28.1 80 -26  1013.7  -0.1  710  317           
21 21.02.18 280 (З) 2000 м  слаб. снег  10/0 средняя 
[As op]
-25.2 -27.7 80 -28  1013.3  -0.3  710  317           
00 22.02.18 280 (З) 2000 м  слаб. снег  10/0 средняя 
[As op]
-25.9 -28.4 79 -29  1013.4  -0.1  710  318  -25.9    0.5  54  равномерный
сухой снег
100% 
03 22.02.18 290 (З) 20000 м  слаб. снег  10/0 средняя 
[As op]
-25.3 -27.8 80 -26  1013.6  0.4  710  317           
06 22.02.18 280 (З) 20000 м  {снег}  9/0 средняя, верхняя 
[Ac trans|Ci fib]
-24.3 -26.8 80 -27  1013.9  0.5  710  316           
09 22.02.18 260 (З) 4000 м  слаб. снег  10/0 средняя 
[As op]
-25 -27.4 80 -26  1015.7  1.5  711  317           
12 22.02.18 тихо ()   2000 м  слаб. снег  10/0 средняя 
[As op]
-27.3 -29.8 79 -27  1018.1  1.7  713  321    -24.2     
15 22.02.18 100 (В) 2000 м  слаб. снег  10/0 средняя, верхняя 
[As op|Cs]
-27.4 -29.8 80 -31  1019.2  0.9  713  321           
18 22.02.18 080 (В) 2000 м  слаб. снег  10/0 средняя, верхняя 
[As op|Cs]
-29.6 -32 80 -35  1021.6  1.6  714  325           
21 22.02.18 070 (В) 20000 м  в посл. час снег  8/0 средняя, верхняя 
[Ac trans|Ci fib]
-31.7 -34.8 74 -39  1024.9  2.6  716  328           
00 23.02.18 070 (В) 20000 м  в посл. час снег  8/0 средняя, верхняя 
[Ac trans|Ci fib]
-32.5 -36.2 69 -40  1027.3  718  330  -32.5    0.4  54  равномерный
сухой снег
100% 
03 23.02.18 070 (В) 20000 м    6/0 средняя, верхняя 
[Ac trans|Ci fib]
-32.1 -35 75 -38  1029  1.7  719  330           
06 23.02.18 070 (В) 20000 м    6/0 средняя, верхняя 
[Ac trans|Ci fib]
-29.6 -32.6 75 -35  1030.1  1.7  720  327           
09 23.02.18 070 (В) 20000 м    5/0 верхняя 
[Ci fib]
-29.5 -32 79 -35  1032.3  2.1  722  328           
15 23.02.18 070 (В) 20000 м    5/0 верхняя 
[Ci fib]
-32.2 -35.9 70 -38  1035.5  0.9  724  332           
18 23.02.18 070 (В) 20000 м    8/0 верхняя 
[Ci fib]
-33.2 -37 69 -41  1036.5  0.7  724  334           
21 23.02.18 060 (СВ) 20000 м    8/0 верхняя 
[Ci fib]
-34.3 -37.8 71 -40  1037.6  0.6  725  336           
00 24.02.18 070 (В) 20000 м    5/0 верхняя 
[Ci fib]
-34.9 -38.4 70 -41  1038.3  0.5  725  337  -34.9      54  равномерный
сухой снег
100% 
03 24.02.18 070 (В) 20000 м    4/0 верхняя 
[Ci fib]
-31.5 -35.2 70 -35  1037.7  0.4  725  332           
06 24.02.18 тихо ()   20000 м    3/0 верхняя 
[Ci fib]
-25.4 -28.5 75 -25  1035.9  0.1  725  324           
Время (UTC), дата Ветер
(°,м/с) 
Видим.   Явления Облачность Т
(°С)
Тd
(°С)
f(%) Тe
(°С)
Pmin
(гПа)
dP
(гПа)
Po
(мм)
O2
(г/м3)
Тmin Tmax R s Состояние
почвы

Для получения пояснительной информации подведите курсор к названию столбца.

ПОГОДА Полярный - архив

Всё, что Вы хотите узнать о погоде Полярный - удобно и подробно!

Выберите нужную дату (начиная с 1 января 2015* года) и нажмите кнопку "Найти".
Будут отображены архивные сводки погоды по пункту Полярный, начиная с указанной даты.


Отображать данные в формате CSV (для использования в таблицах Excel)


Внимание! Наш архив погоды предназначен исключительно для личного некоммерческого использования в познавательных целях. Если Вам необходимы официальные справки о состоянии погоды (для производственных, юридических, коммерческих и т.п. целей), обращайтесь в органы Росгидромета.

*Примечание: данная дата относится к архиву по метеостанциям СССР (Россия, СНГ, Балтия).
Архив по метеостанциям Зарубежной Европы и Азии (кроме Китая) хранится 10 дней, по другим регионам земного шара (Китай, Африка, Америка, Австралия, Океания) - 1 день.

Полярный - район местоположения метеостанции


Название, широта, долгота, высота метеостанции:
Полярный 66.5°ш. 112°д. 509 м над ур. моря [Российская Федерация]

Дополнительная информация

В oтличие oт бoльшинства пoгoдных сайтoв мы публикуем пoдрoбную метеoинфoрмацию в детальнoм прoфессиoнальнoм фoрмате.

Характеристики температуры и влажнoсти вoздуха измеряются на высoте 2 м в тени вдали oт зданий и деревьев.
Скoрoсть ветра измеряется на высoте 10 м (на урoвне рoста челoвека скoрoсть ветра ниже в 1.5-2 раза). Если метеoстанция нахoдится в гoрoде или в лесу, тo скoрoсть ветра занижена на 2-4 м/с пo сравнению с oткрытым местoм. Скoрoсть ветра над акватoриями крупных рек и oзёр, а также на вершинах хoлмoв на 2-5 м/с выше, чем в oбычных услoвиях.
Атмoсфернoе давление в разных тoчках местнoсти мoжет значительнo oтличаться oт давления на метеoстанции, в зависимoсти oт услoвий рельефа (при пoдъёме на 10 м давление пoнижается примернo на 1 мм рт.ст.).